Wind_Speed
29 28 28 27 27 26 26 25 24 24 23 22 21 20 20 19 18 16 16 17 18 19 20 20 20 21 20 19 18 17 18 20 20 20 21 22 24 25 27 29 30 30 29 30 31 33 34 37 38 39 40 36 32 31 31 33 35 34 33 32 31 30 28 27 26 25 23 22 22 22 22 21 22 24 26 27 28 27 25 23 21 21 20 20 21
29 28 28 27 27 26 26 25 24 24 23 22 21 21 21 20 19 18 17 17 18 20 21 21 22 23 22 22 21 20 20 20 21 22 23 23 24 25 27 30 30 29 29 30 31 32 34 36 37 38 38 34 30 29 30 33 35 35 33 32 32 31 29 28 27 26 24 24 24 24 24 23 24 25 26 28 28 28 26 24 22 21 21 20 20
30 29 28 28 27 26 26 25 25 24 24 23 22 22 22 21 21 19 18 18 19 21 22 22 23 24 24 23 23 22 22 21 21 22 23 24 24 25 27 29 29 28 28 29 30 32 33 34 36 37 36 33 29 27 28 32 34 35 35 34 33 32 31 30 29 28 27 26 26 27 26 26 26 27 28 29 29 29 27 26 24 23 22 22 22
30 29 28 28 27 26 26 25 25 24 24 23 24 24 23 22 21 20 19 20 20 21 22 23 23 23 24 23 23 22 22 22 21 21 22 23 23 24 26 27 27 26 27 28 29 30 31 32 34 35 35 33 28 26 27 29 32 34 35 35 35 35 34 33 32 32 31 31 30 30 30 30 30 30 30 30 30 30 29 28 27 26 26 25 24
31 30 29 28 27 27 26 25 25 24 24 24 24 25 24 23 22 21 20 21 21 21 22 22 22 22 21 22 21 21 22 22 21 20 20 21 21 23 25 25 25 25 26 27 27 28 29 31 33 34 35 33 28 26 26 28 30 33 35 35 36 36 35 35 34 34 34 34 34 34 34 33 33 33 33 33 32 32 32 31 31 30 30 30 28
32 31 30 29 28 27 27 26 25 25 24 24 25 25 25 24 22 21 21 22 22 21 21 21 21 20 19 19 19 20 21 21 21 20 19 19 19 21 23 24 24 24 25 26 26 27 29 31 32 33 34 33 30 27 27 28 31 33 35 36 37 37 37 36 36 35 36 36 37 37 37 37 37 37 37 36 35 35 34 34 33 33 34 34 32
33 32 31 30 30 28 27 27 26 26 25 25 25 26 25 24 23 22 22 22 22 21 21 21 21 20 18 17 18 19 20 20 20 19 18 18 19 21 22 23 23 23 24 24 25 27 29 30 31 33 33 33 31 29 28 29 31 33 34 35 36 37 38 38 37 37 37 38 39 40 40 40 41 41 41 39 38 37 37 36 36 37 37 35 32
34 34 33 32 32 30 29 28 27 27 27 26 26 26 26 25 25 24 23 23 23 21 21 20 20 19 18 18 19 19 19 20 20 18 17 18 19 20 22 22 22 22 22 23 25 27 28 29 31 32 33 33 32 32 31 31 32 33 34 35 36 37 38 39 39 38 38 39 40 41 41 42 43 44 44 43 41 39 38 37 38 39 38 33 30
36 36 35 34 34 32 31 29 28 28 28 27 26 26 27 26 26 25 25 24 23 22 21 21 20 19 18 18 19 19 19 20 20 18 17 18 19 20 22 22 21 21 20 22 25 27 28 29 30 32 33 33 33 33 33 33 33 34 35 36 36 37 38 39 40 39 39 40 41 42 43 44 44 44 45 45 44 41 40 40 41 41 37 32 30
39 38 37 36 36 34 33 31 30 30 29 28 26 27 28 28 27 27 26 25 25 24 22 22 21 19 18 18 18 18 18 19 19 18 17 18 20 21 22 22 21 20 19 22 25 26 28 29 30 32 33 34 35 35 34 34 34 35 35 36 37 38 39 39 40 40 40 41 42 43 44 44 44 44 46 48 47 45 43 43 44 42 37 33 31
40 40 40 39 38 37 35 34 33 32 31 29 27 27 27 28 29 28 28 27 26 25 24 23 22 20 19 18 17 16 16 17 18 18 19 20 22 22 22 22 21 19 20 23 25 26 28 30 31 33 34 35 36 36 36 36 36 36 36 36 37 39 39 39 40 40 40 41 43 44 44 44 44 45 47 50 49 47 45 45 46 43 38 36 34
42 42 42 41 40 40 38 37 35 34 32 30 29 28 27 28 29 30 29 29 28 26 26 24 23 22 20 18 17 16 16 17 18 19 21 23 23 23 23 22 21 19 21 24 25 27 28 30 32 34 36 36 37 37 38 38 39 39 38 38 38 39 40 40 40 40 41 42 43 43 44 44 44 46 48 51 51 49 47 47 47 44 40 39 37
43 44 44 43 42 42 41 40 38 36 34 32 30 29 28 27 29 30 30 30 29 28 28 26 25 24 23 20 18 17 18 19 20 22 23 24 24 24 24 23 21 21 23 25 26 28 30 32 34 36 38 38 38 39 39 40 41 41 40 39 39 40 41 41 40 40 41 42 42 43 44 45 45 46 49 51 51 50 49 49 48 45 43 41 40
44 45 45 45 44 44 43 42 40 38 36 34 32 31 29 28 29 30 30 31 30 29 29 28 27 25 24 23 21 20 22 23 24 25 25 25 26 25 25 24 23 24 25 26 28 29 31 33 35 38 39 40 40 40 40 42 42 42 42 41 40 41 42 41 41 41 41 42 42 44 45 45 45 47 49 50 51 50 50 50 49 47 45 45 44
45 46 46 46 46 45 44 44 42 41 38 36 34 32 30 28 28 29 31 31 31 31 31 30 29 28 27 25 24 24 25 25 25 25 25 27 28 28 26 25 25 26 27 28 29 30 32 34 37 39 41 41 41 41 42 43 44 43 42 41 42 43 43 41 41 41 41 42 43 44 45 45 46 46 48 49 51 51 51 51 50 48 48 47 47
45 46 46 46 46 46 45 45 44 43 40 38 36 34 32 29 29 29 31 32 32 32 32 32 31 31 29 28 27 27 26 25 24 25 26 27 29 29 27 27 27 28 28 29 29 30 33 35 38 39 40 41 42 42 43 45 44 42 42 42 43 44 43 42 41 41 41 42 43 44 45 45 46 47 47 49 50 50 51 51 50 49 49 48 48
44 44 45 45 46 46 46 45 45 44 42 40 37 35 33 31 30 29 30 32 33 34 34 33 33 33 32 31 31 30 28 27 26 26 27 28 29 29 28 28 30 30 30 31 32 33 34 36 38 39 40 42 42 42 43 45 44 42 42 43 44 44 43 42 41 42 42 42 43 44 45 46 47 47 48 48 49 49 50 50 49 48 48 48 48
42 43 43 44 45 46 46 46 45 45 44 42 39 37 34 33 31 30 30 31 33 35 35 35 35 35 35 34 33 31 30 29 29 29 29 30 30 29 29 30 32 33 34 35 35 36 36 36 38 39 41 43 42 41 42 44 43 42 43 44 44 44 43 42 41 42 42 43 44 44 45 46 47 47 48 48 48 49 50 49 47 47 47 47 46
41 42 42 42 43 45 45 46 46 45 45 44 41 38 36 34 32 31 30 31 33 35 37 37 37 37 37 36 34 32 31 30 31 31 31 31 31 31 32 33 36 37 38 39 39 39 39 39 39 41 42 43 41 40 42 44 44 43 43 44 44 44 43 41 41 41 42 43 44 44 45 46 47 47 47 47 47 48 49 48 46 47 47 46 45
39 41 41 41 42 43 44 45 45 46 45 45 43 41 38 35 34 32 31 30 32 36 38 39 38 38 38 37 35 33 32 31 32 32 32 32 32 33 34 36 37 38 39 41 42 42 42 41 41 42 43 42 39 40 42 44 44 43 43 44 44 44 43 41 41 41 42 44 45 45 45 45 46 47 47 47 47 47 47 46 46 47 47 45 44
37 38 40 40 41 41 42 43 44 45 45 45 44 42 40 37 35 32 29 28 31 34 38 40 40 40 39 37 37 35 34 33 34 34 35 35 35 35 36 37 38 39 41 43 43 43 43 42 42 43 43 41 39 41 43 44 44 44 43 44 44 44 42 41 41 42 43 44 45 46 45 45 46 47 47 46 45 46 46 46 45 46 47 45 43
34 36 37 38 39 40 40 41 42 43 44 44 44 44 42 39 36 32 27 28 29 28 33 39 39 39 40 38 37 36 35 35 36 37 38 37 37 37 37 38 39 41 42 43 44 44 43 43 43 43 42 41 41 43 44 45 46 45 44 45 45 44 42 41 41 42 43 45 46 46 45 45 47 47 47 46 45 45 45 45 45 46 46 45 43
32 33 34 35 36 37 38 39 40 41 42 43 44 44 43 40 38 35 30 32 33 28 30 38 38 39 40 39 38 37 37 37 37 38 39 38 38 38 39 40 41 42 42 43 44 44 44 43 43 42 41 41 43 44 46 46 47 46 45 45 45 44 42 41 41 42 43 46 47 46 45 46 47 48 47 45 44 44 44 44 45 46 46 45 43
29 30 32 33 34 34 35 36 38 39 40 42 42 43 43 41 39 38 35 35 36 33 32 36 37 39 41 40 39 38 37 38 38 39 39 39 39 39 40 41 41 41 41 42 43 43 43 43 42 41 41 42 44 45 46 47 47 47 46 46 45 44 42 41 41 42 44 47 47 46 46 47 48 48 47 45 43 43 44 44 44 45 46 45 44
27 28 29 30 31 32 33 34 35 37 38 39 40 40 40 37 38 40 39 38 39 39 38 38 39 40 40 39 39 38 37 38 38 39 40 40 40 40 41 41 40 40 41 41 41 42 43 43 41 41 42 43 45 46 47 47 47 47 47 47 45 43 43 41 41 42 46 47 47 47 48 48 49 49 47 45 43 43 44 44 44 45 46 46 45
27 27 27 27 28 29 30 31 32 34 35 36 38 37 34 32 34 38 40 41 41 42 43 43 44 43 42 41 40 39 38 38 38 39 40 41 41 40 40 40 40 41 41 41 42 43 43 42 41 41 42 44 45 46 47 47 48 48 47 47 45 44 43 42 42 44 47 47 47 48 49 49 49 49 48 45 43 43 44 44 44 44 46 48 47
27 27 27 26 26 26 27 28 29 29 31 34 35 34 32 32 33 36 39 41 43 44 44 44 45 45 44 43 42 41 40 38 38 40 41 41 41 40 40 41 41 42 42 42 43 44 43 41 41 42 43 44 45 46 46 47 48 47 46 46 45 44 43 43 43 45 46 46 48 50 50 50 50 49 47 44 43 43 44 45 45 45 46 48 49
25 26 25 25 25 24 24 24 25 26 28 31 30 30 32 33 34 35 37 39 42 45 45 44 44 45 45 45 44 42 41 40 40 41 42 42 41 41 40 41 42 42 43 43 44 44 43 41 41 43 43 44 44 44 45 46 46 47 47 46 45 45 44 44 44 45 45 47 49 51 51 51 51 49 47 44 43 43 45 45 45 45 46 48 50
22 22 23 23 22 22 21 19 20 24 26 24 23 26 31 33 33 34 35 36 38 42 44 45 46 47 49 48 45 41 39 38 39 39 40 40 40 40 40 41 42 42 43 44 44 43 42 42 43 43 43 43 43 43 44 45 47 49 48 46 46 46 45 44 44 44 46 48 51 52 52 52 51 49 47 44 43 44 45 46 46 46 47 49 51
18 17 18 18 18 18 16 13 16 23 24 19 19 25 30 33 34 36 36 36 37 38 41 44 46 47 48 46 43 40 39 38 38 38 39 40 40 41 42 42 43 43 44 44 44 43 42 43 44 44 43 43 44 44 45 47 49 49 47 46 47 46 45 44 44 45 48 50 52 53 53 53 52 49 46 44 43 44 46 47 47 47 48 50 51
13 15 18 17 16 15 11 8 13 23 24 20 21 27 32 34 35 35 35 36 39 40 41 42 44 45 45 44 43 42 42 41 41 41 42 42 43 44 44 44 44 44 44 45 44 44 43 43 44 44 45 45 46 46 48 49 50 48 47 47 48 47 44 43 44 47 50 51 52 54 55 54 52 49 47 45 44 45 47 48 49 49 50 51 52
11 20 23 20 18 16 12 11 17 24 27 26 26 29 33 37 37 34 30 31 37 41 42 42 43 44 45 45 44 44 45 45 44 45 45 44 45 45 45 45 45 45 45 45 45 45 44 44 45 46 47 47 48 48 49 50 49 48 48 48 48 46 44 44 46 49 51 52 54 55 56 55 52 49 47 45 45 46 48 49 50 50 51 52 54
13 22 21 19 19 18 15 14 17 22 27 30 29 31 34 36 37 36 31 28 31 35 37 38 38 40 40 41 41 42 43 44 45 45 45 45 45 45 44 44 45 45 46 46 46 46 46 46 47 47 48 48 48 49 49 50 49 48 48 49 48 46 44 45 47 50 52 54 57 58 57 55 53 49 46 45 46 47 49 50 51 51 52 53 55
15 18 17 19 19 18 17 16 17 21 26 29 31 34 36 36 36 36 33 31 31 33 36 36 35 34 34 35 37 39 40 42 43 43 42 43 43 42 43 44 45 47 48 48 49 48 48 47 47 47 47 48 49 50 51 51 49 49 49 48 46 45 46 48 49 51 54 57 59 60 58 55 52 49 46 45 46 48 50 51 52 53 54 55 56
18 18 19 20 19 17 17 16 17 20 23 25 28 32 35 35 34 34 33 31 31 33 34 34 35 34 34 36 38 40 41 42 43 42 42 42 42 43 45 47 49 51 52 51 50 49 48 47 46 47 48 50 52 53 53 52 50 50 49 46 45 46 49 51 52 54 57 59 61 60 57 54 51 48 46 46 47 49 51 53 53 54 55 56 57
19 18 17 18 16 15 15 15 16 18 20 22 25 28 30 29 30 32 33 33 31 30 30 30 31 33 36 39 41 43 44 44 44 44 45 46 46 47 48 51 53 54 54 52 50 48 47 47 48 49 51 52 53 54 53 51 51 50 48 45 45 47 51 53 55 57 60 61 61 59 56 52 49 47 46 47 49 51 53 54 55 56 57 58 59
15 14 14 13 11 11 12 12 13 15 18 21 22 24 24 24 26 29 31 32 32 32 33 33 33 33 34 38 41 45 46 46 46 46 46 47 48 50 52 54 55 55 53 51 49 48 49 50 51 52 52 53 52 52 51 51 51 49 46 45 46 50 53 55 58 59 61 60 58 56 53 50 48 47 48 49 51 53 55 56 56 57 58 59 60
12 13 13 10 9 10 10 10 11 14 18 20 20 20 21 22 25 27 27 27 29 33 36 36 38 38 38 38 40 44 46 46 46 47 48 49 51 52 54 55 55 54 52 51 50 51 52 52 52 52 52 51 50 50 50 50 49 47 46 46 49 53 56 58 60 60 59 58 56 53 50 48 48 48 50 51 53 55 57 58 58 59 60 61 62
12 13 12 10 10 10 11 12 13 15 17 19 20 21 22 24 28 29 28 27 29 33 36 38 40 42 44 44 45 47 49 50 50 51 52 53 54 55 56 56 55 53 52 51 52 52 52 52 51 50 50 50 50 50 50 49 47 46 46 48 51 55 59 60 61 60 58 57 55 52 49 49 50 50 52 53 55 57 59 59 60 60 62 63 63
12 13 14 13 13 13 14 16 17 17 18 20 23 25 25 28 30 31 30 31 32 32 34 38 41 44 46 48 49 51 52 53 53 54 55 56 56 56 56 56 54 52 52 52 52 52 51 50 50 49 50 50 50 50 49 47 46 45 47 49 54 58 59 60 61 59 57 57 55 52 51 51 52 53 54 55 57 59 60 61 61 62 63 64 65
8 9 11 13 14 16 17 20 21 21 22 25 26 27 28 29 31 31 31 32 33 34 35 39 42 44 47 49 51 53 54 54 55 55 56 56 56 56 56 54 53 52 52 52 51 51 50 50 50 51 51 51 50 49 48 47 46 46 48 53 56 59 60 61 60 58 57 56 54 53 52 53 53 54 56 57 59 61 62 62 63 63 64 65 66
4 4 6 9 11 13 16 20 22 22 24 27 29 29 30 30 30 30 30 31 33 36 39 41 44 47 51 55 56 55 55 56 56 56 56 56 55 54 53 52 52 52 52 52 52 52 52 52 52 52 52 51 50 48 47 46 46 49 52 56 58 59 61 61 59 58 57 55 54 54 54 54 55 56 58 59 61 62 63 64 64 65 66 66 68
6 5 6 7 8 9 11 15 18 20 22 25 29 32 34 35 35 34 34 35 37 40 43 46 49 53 56 58 58 57 56 57 57 56 56 56 55 53 52 52 53 53 53 53 53 53 53 54 53 53 52 51 49 48 47 47 49 53 56 58 59 60 61 61 59 57 56 55 55 55 55 56 57 58 59 61 62 63 64 65 66 67 67 68 69
10 9 8 8 8 9 9 10 12 15 19 23 27 31 35 37 38 39 40 41 43 45 47 50 53 54 56 57 58 57 57 58 58 58 57 57 56 55 55 55 55 55 55 55 54 55 55 55 55 54 53 51 49 48 48 51 54 56 58 59 60 62 62 60 58 56 55 55 56 57 57 58 59 60 61 62 63 65 65 66 67 68 69 70 71
15 14 14 13 12 11 11 11 11 11 13 17 20 24 28 32 34 37 40 42 44 46 48 50 51 53 54 56 57 57 58 58 58 59 59 58 58 57 57 57 57 56 56 56 56 56 57 56 55 53 51 50 49 50 52 55 57 58 60 61 63 63 61 59 57 56 56 56 57 58 59 60 61 62 62 63 65 66 67 68 69 70 71 72 73
21 21 19 18 16 15 14 14 14 13 13 13 14 17 19 23 26 29 32 35 38 41 44 46 48 50 52 54 55 56 57 57 58 58 58 58 59 59 59 58 57 56 56 56 57 57 56 55 53 52 51 51 52 54 56 57 59 60 62 63 64 62 60 58 57 56 57 57 58 59 61 62 63 63 64 65 66 68 69 70 71 72 72 73 73
24 24 24 22 21 19 18 17 16 16 16 16 16 17 18 20 22 23 24 26 29 32 35 37 38 40 43 45 46 48 49 51 53 54 54 55 55 55 55 55 54 54 55 56 57 57 55 53 52 52 53 54 56 57 58 59 61 63 64 64 62 61 59 58 58 58 58 59 60 61 62 63 64 65 66 67 69 70 72 73 73 73 73 72 71
25 26 26 26 25 24 23 21 19 19 19 19 20 20 21 21 21 20 21 22 24 26 27 27 28 29 31 32 34 36 38 40 41 43 44 45 47 48 50 51 52 53 55 57 57 57 56 54 54 55 56 57 57 58 59 61 62 63 62 61 60 60 59 59 59 59 59 60 61 62 63 64 66 67 69 70 72 73 74 74 74 73 72 71 71
24 25 26 27 27 27 27 26 24 21 21 22 22 22 22 22 21 20 21 21 22 23 24 25 26 28 29 31 32 34 35 37 38 40 42 44 47 49 52 54 55 56 59 60 61 60 59 57 57 58 58 58 58 59 60 60 59 59 59 59 59 59 59 60 60 60 61 62 63 64 66 67 68 69 71 72 74 75 75 75 74 73 72 72 73
23 24 26 27 27 28 29 29 27 24 23 24 24 23 22 21 21 20 21 22 23 25 26 28 30 32 33 34 35 36 37 38 39 41 42 44 46 49 51 54 56 58 61 63 63 61 60 59 59 59 58 58 57 57 57 57 57 58 59 59 60 60 61 61 62 62 63 64 65 67 68 69 71 73 74 74 75 76 76 75 75 74 74 75 77
27 27 28 27 28 29 30 30 28 27 27 27 26 24 23 22 21 22 23 26 28 30 32 34 37 38 38 38 38 39 39 40 40 41 42 42 44 45 48 50 52 54 57 58 59 59 59 58 58 57 56 56 57 58 58 59 60 61 62 62 62 63 63 64 65 65 65 66 67 69 71 72 74 76 77 77 78 77 76 75 74 75 76 78 80
Wind_Direction
283 283 282 282 281 282 283 283 283 284 283 282 281 276 269 265 268 270 273 281 288 294 299 302 304 302 300 298 297 290 282 280 285 291 294 299 306 313 321 324 326 328 328 327 327 329 333 340 343 344 345 347 353 357 358 358 357 356 356 355 355 354 355 355 356 356 355 354 352 351 350 350 348 346 346 346 346 344 341 336 332 329 326 321 315
280 280 280 280 280 281 282 283 283 283 281 280 279 274 267 264 266 269 271 278 285 292 297 301 303 303 300 296 293 291 289 285 284 286 290 296 303 311 319 323 325 328 328 327 328 331 336 340 343 344 346 349 355 359 359 1 2 2 3 3 2 2 1 1 0 360 358 355 352 350 349 347 344 342 342 342 343 344 344 344 341 338 334 328 320
277 277 277 278 278 279 281 282 282 282 280 278 277 274 267 263 266 269 272 278 283 289 296 301 302 301 300 298 294 291 290 289 287 285 288 293 301 311 319 322 325 328 328 329 331 335 339 342 343 343 346 349 356 360 358 2 6 9 11 11 10 9 8 7 5 3 0 357 353 350 348 346 342 340 339 338 339 339 341 342 343 342 338 334 327
274 274 275 275 276 278 279 281 281 280 279 277 275 273 268 264 266 269 272 276 282 289 296 301 303 303 301 298 296 294 291 289 288 287 289 293 300 311 318 322 326 328 330 331 334 338 341 344 343 344 346 349 354 358 357 360 6 9 11 12 13 14 14 13 12 9 6 2 358 355 351 347 344 341 339 337 337 336 336 337 337 336 334 331 327
271 272 272 273 274 275 277 279 280 279 278 276 275 273 270 265 265 268 270 275 281 289 297 301 304 305 304 300 296 295 292 290 289 289 290 293 301 310 317 321 327 330 332 334 337 341 343 344 344 344 347 348 351 354 355 355 357 358 359 0 2 4 6 9 10 10 9 7 5 3 359 355 350 346 342 339 337 335 334 333 332 331 329 327 323
268 269 269 270 271 272 275 277 278 277 276 274 273 272 269 265 264 266 269 273 280 288 296 302 306 308 306 302 296 293 294 294 291 290 290 292 300 310 315 320 326 330 332 336 339 341 342 343 343 344 347 349 349 349 349 349 349 350 351 353 354 355 355 356 358 360 1 2 2 3 2 1 358 354 349 343 339 336 333 332 330 330 328 325 321
264 266 266 267 268 269 272 274 276 276 275 273 272 271 269 265 263 264 266 271 278 286 292 300 307 309 308 304 295 291 295 297 295 291 290 293 301 308 312 316 322 328 331 335 339 340 341 341 341 343 345 348 349 347 346 345 345 347 348 350 351 352 353 353 352 353 354 354 356 357 358 359 359 358 354 349 343 338 334 332 330 330 328 325 321
261 264 264 265 266 266 267 270 273 275 274 272 271 271 269 265 262 262 264 269 275 282 288 297 306 310 308 304 295 291 292 293 293 291 290 296 302 305 308 313 320 326 330 333 337 338 338 339 339 341 343 346 347 346 346 345 345 345 345 346 347 349 350 351 351 351 351 351 352 353 354 355 356 356 354 351 345 340 336 334 333 333 331 327 323
258 263 264 263 264 264 265 267 271 274 273 271 271 271 270 266 263 262 264 269 274 278 285 294 302 305 305 304 298 292 289 289 289 288 291 297 299 301 306 311 319 325 327 331 334 336 336 336 337 338 340 342 343 343 343 343 343 343 343 343 343 345 347 349 350 350 351 350 350 351 352 353 353 353 352 349 346 341 339 337 336 336 334 331 329
256 261 264 264 263 263 263 264 267 270 271 270 270 270 270 268 264 262 264 267 272 275 281 289 297 298 300 304 302 296 290 288 289 289 291 294 294 299 307 312 318 323 323 327 332 333 334 333 333 334 336 338 339 339 340 341 342 341 341 341 341 342 344 346 347 348 349 349 349 350 351 352 351 350 350 348 346 343 341 339 338 337 336 336 335
256 259 262 264 263 262 262 262 263 267 269 269 269 269 269 268 266 263 263 266 269 273 277 283 291 292 293 301 304 302 296 292 292 290 289 289 292 299 307 312 316 319 319 324 330 331 331 331 330 330 332 333 334 336 337 339 339 339 339 340 340 341 342 343 345 346 347 347 348 349 350 350 349 349 348 348 346 343 341 340 339 339 339 340 339
258 259 260 261 262 261 260 260 260 263 266 266 267 267 267 267 266 264 263 265 268 272 274 278 284 287 288 294 301 303 299 294 290 287 286 288 292 300 309 312 313 315 317 322 327 328 328 328 328 328 328 330 330 332 335 336 336 337 337 339 339 340 340 341 342 344 345 346 347 348 348 348 348 348 347 347 345 343 341 340 340 340 341 341 341
257 257 258 258 258 258 258 258 258 259 262 263 264 265 266 266 266 265 264 265 268 270 272 274 278 283 283 284 292 300 300 296 289 285 286 289 293 300 309 311 310 312 316 321 324 325 326 327 326 326 326 328 328 329 331 332 333 334 336 337 339 339 339 340 340 342 343 344 346 347 347 347 347 347 347 346 344 342 341 340 340 341 341 342 342
255 255 254 254 254 254 255 256 256 257 258 260 261 263 265 265 265 265 264 265 267 269 270 271 275 279 280 279 283 292 300 299 292 287 287 288 293 300 306 309 308 309 314 318 322 324 325 325 324 324 325 327 327 327 328 329 331 333 334 336 337 339 339 338 339 340 341 343 344 345 346 346 345 345 345 344 342 341 340 340 340 341 341 341 341
255 254 253 253 253 253 253 254 255 255 256 257 258 260 263 264 265 265 264 264 264 266 269 270 273 277 280 280 280 285 294 299 293 288 288 289 294 298 301 306 308 309 313 317 319 322 324 324 324 323 325 326 325 324 325 327 329 331 332 334 336 337 338 337 337 338 340 341 343 344 345 345 344 343 343 342 341 340 339 339 339 340 340 340 340
256 255 254 254 253 253 253 254 255 255 255 255 256 258 260 263 265 265 264 264 264 265 267 269 272 276 279 281 281 282 287 293 292 289 289 292 296 298 299 304 309 311 314 316 317 319 321 323 323 322 324 325 324 322 324 326 327 329 331 333 334 336 336 335 335 336 337 339 341 343 344 344 343 342 341 341 339 338 338 338 338 338 338 338 338
258 257 256 255 254 254 254 254 255 256 256 255 255 256 258 262 264 266 265 265 265 265 266 269 272 275 278 281 284 283 282 286 289 290 291 294 300 301 299 303 308 310 313 315 315 315 318 321 322 323 324 324 322 321 323 325 326 327 330 332 333 334 335 334 333 334 335 337 340 342 343 343 342 341 340 339 338 337 336 336 336 336 336 336 337
261 260 259 257 255 254 254 254 254 255 256 256 255 255 257 260 263 266 267 267 267 267 267 268 271 274 276 279 284 285 283 281 283 287 290 294 298 298 298 302 306 309 311 312 312 313 315 318 321 323 324 323 320 320 323 326 326 326 328 331 332 333 333 332 332 333 333 335 338 341 341 341 341 340 339 338 337 336 335 335 335 335 334 335 336
263 262 261 260 258 256 255 254 254 254 255 256 256 255 255 258 262 266 268 269 270 270 269 268 269 272 275 278 281 285 285 282 281 283 288 291 293 293 295 300 304 306 308 309 310 311 313 316 319 322 322 320 317 318 323 327 328 326 327 330 331 332 331 330 331 332 332 333 336 339 340 340 339 339 338 337 335 334 334 333 333 333 332 333 335
264 263 263 262 260 259 257 256 255 254 254 255 255 255 254 255 259 264 268 273 276 276 273 270 269 270 273 276 280 282 283 283 282 282 285 287 288 290 292 297 300 304 306 307 309 310 311 314 318 320 320 317 314 316 321 325 328 328 328 329 330 330 330 329 330 330 331 332 335 337 338 338 338 337 336 335 333 332 332 332 332 332 331 332 334
267 266 265 264 262 261 259 258 256 255 254 254 255 255 254 254 255 260 268 276 279 279 275 271 269 270 271 274 277 280 282 283 284 284 284 285 286 288 291 295 299 302 304 306 308 310 311 313 316 318 316 312 311 314 317 321 325 327 328 329 330 329 328 328 328 329 329 331 333 335 336 336 336 335 335 333 332 331 331 331 330 330 330 330 332
271 271 270 268 266 264 261 259 258 257 255 254 254 254 254 253 253 255 257 261 262 265 271 272 270 270 271 272 274 277 281 283 285 285 285 285 286 288 290 294 297 300 302 305 307 309 310 312 314 314 311 308 308 311 314 318 322 324 326 328 328 327 327 327 327 327 328 329 332 333 334 335 334 334 333 332 330 329 329 329 329 329 328 328 330
276 276 275 274 272 269 265 262 259 258 256 254 253 253 253 253 252 251 249 251 252 252 261 269 272 272 272 272 274 276 279 282 284 285 285 286 288 289 291 294 297 299 301 303 305 307 308 310 311 310 307 305 306 309 312 316 319 321 323 325 326 325 325 326 325 325 326 328 330 331 333 333 332 332 331 330 329 328 328 328 327 328 328 327 329
280 279 279 278 276 274 270 265 261 258 256 255 253 252 252 253 252 251 248 248 252 253 258 267 274 275 273 272 275 277 279 281 283 284 285 286 288 290 292 294 296 298 299 302 303 304 305 307 308 306 304 304 305 307 310 313 317 319 321 323 323 324 324 324 323 324 325 327 328 330 332 331 331 330 329 328 327 327 327 327 326 327 328 327 329
284 283 282 280 278 276 273 268 264 259 256 255 254 252 251 254 255 254 250 248 250 253 258 266 273 277 275 273 275 278 279 281 283 284 284 285 287 289 291 293 295 296 299 300 301 302 303 305 305 304 303 303 304 306 309 312 315 318 319 321 321 323 323 322 322 322 323 325 327 329 330 330 329 328 327 326 325 325 327 327 325 325 327 328 328
290 291 289 286 282 278 274 271 266 262 259 255 253 252 249 248 253 254 252 249 249 251 257 263 270 274 275 275 277 279 280 282 283 282 281 283 286 288 290 292 294 296 298 299 300 301 302 302 303 302 302 303 304 306 308 311 314 317 318 319 320 322 322 320 319 321 322 324 325 327 328 328 327 326 325 324 323 323 326 327 325 324 325 327 327
296 297 296 293 289 283 278 274 270 266 262 256 253 252 247 241 245 253 254 252 249 251 256 262 266 270 275 278 279 280 281 282 282 280 280 283 285 288 290 292 295 297 298 298 299 300 301 301 301 300 301 303 304 306 309 311 314 317 317 318 320 322 320 318 318 319 321 322 324 326 326 326 325 324 323 322 321 321 324 326 325 323 324 326 327
299 299 300 299 296 290 284 279 278 273 265 259 254 252 246 241 244 251 256 255 252 251 254 258 261 264 271 277 280 281 282 282 281 280 280 283 285 288 290 292 294 296 296 297 298 300 301 300 300 300 302 303 305 307 310 312 315 317 317 317 319 320 319 317 317 318 319 320 322 324 325 324 324 322 321 319 318 320 322 324 325 325 324 325 326
302 304 306 306 303 298 292 289 289 282 273 267 260 254 249 246 246 251 259 261 258 255 254 255 257 261 266 273 278 280 281 281 280 280 281 283 286 288 290 291 293 294 294 296 298 300 300 300 300 301 302 304 306 309 311 313 314 316 316 317 318 319 317 316 316 317 318 320 322 323 323 323 322 320 319 317 316 318 320 322 324 326 325 325 326
311 312 310 308 306 307 308 311 303 287 278 267 252 251 253 253 251 253 259 263 264 262 259 257 258 262 266 271 274 276 277 278 279 280 282 284 286 288 290 291 293 293 295 297 298 300 300 300 301 301 303 305 308 310 312 313 313 314 315 315 317 317 317 316 315 316 317 319 321 321 321 321 320 318 316 315 314 316 319 322 324 325 326 325 325
327 316 306 302 302 309 315 299 271 267 266 253 235 236 243 246 249 254 259 262 263 264 264 261 261 264 268 270 272 274 275 276 278 280 282 284 287 289 291 293 294 295 296 298 299 300 300 300 300 301 303 306 309 310 311 312 313 313 314 314 315 316 315 315 315 315 317 319 320 320 320 319 318 316 315 313 313 315 318 321 323 324 325 325 324
315 298 296 293 289 293 291 254 239 248 256 249 237 235 239 241 244 248 255 261 263 262 263 264 265 267 270 271 272 274 274 276 278 279 282 285 287 290 292 293 294 296 297 298 299 299 298 298 299 300 303 306 308 310 312 312 312 312 312 313 314 314 314 314 314 315 317 318 319 319 318 316 315 314 313 312 312 313 316 320 321 322 323 324 324
279 285 289 283 275 275 276 259 244 249 256 250 238 235 241 244 244 245 246 251 257 260 264 267 269 270 271 272 273 274 275 277 278 280 283 286 287 289 291 292 295 297 298 298 298 297 296 296 298 300 303 306 308 310 311 311 310 310 311 311 312 312 312 312 313 315 317 318 318 318 316 314 313 312 311 310 310 312 315 318 320 321 322 323 323
268 281 289 282 274 268 267 260 249 250 254 249 237 231 234 240 242 243 245 248 251 259 267 271 272 272 273 275 276 277 278 279 280 283 286 287 288 289 290 293 296 298 299 298 297 295 295 296 298 301 304 307 308 310 310 310 309 308 309 310 310 311 311 311 313 315 316 317 317 316 314 313 312 311 309 308 309 311 313 317 319 320 321 321 322
272 280 280 279 277 269 265 260 252 248 248 245 237 231 231 235 238 240 243 248 253 259 265 268 270 270 272 274 276 278 279 280 281 285 287 287 288 289 291 294 297 298 298 297 295 295 295 297 299 303 305 307 308 309 309 308 307 307 308 309 309 309 309 310 312 314 315 316 316 314 313 312 310 309 307 307 308 310 313 316 317 319 320 320 321
276 278 274 279 280 271 264 259 254 250 246 241 235 230 230 235 242 247 249 251 254 257 257 257 261 265 268 271 274 276 277 279 281 283 284 285 286 287 290 293 296 297 296 295 294 295 296 298 301 304 306 306 307 307 306 306 306 307 308 308 307 306 307 309 311 314 315 316 315 313 312 311 309 307 306 307 309 311 312 315 316 317 319 320 320
271 275 274 278 274 264 261 257 254 255 249 240 232 231 230 235 244 251 255 257 256 255 252 251 253 258 262 266 269 271 273 275 277 279 281 282 284 286 288 291 294 295 294 293 294 295 297 300 302 304 305 305 304 304 304 305 306 307 307 307 304 304 307 309 311 314 316 315 314 313 311 310 308 306 306 307 309 310 312 314 315 316 317 318 319
256 264 268 266 256 252 255 247 239 250 253 244 238 237 236 239 243 247 253 258 259 258 258 256 255 256 259 262 266 269 272 273 275 277 280 282 284 286 288 290 292 294 294 294 295 297 299 301 302 303 302 302 302 302 303 304 305 306 305 303 302 304 307 309 312 314 315 315 314 312 311 309 307 306 306 307 308 309 311 313 313 315 316 317 318
248 254 257 252 245 244 251 242 225 232 247 248 246 244 242 244 247 248 252 255 256 260 265 265 264 263 264 265 268 270 272 273 275 277 279 282 284 287 288 290 293 294 295 296 297 299 300 301 300 300 300 300 301 302 303 303 304 304 302 300 300 304 307 309 311 313 314 314 313 311 310 308 307 306 306 306 307 308 310 311 312 314 315 316 316
246 251 253 252 249 242 242 242 233 235 246 248 245 242 240 243 246 249 253 256 256 260 265 267 268 269 269 270 271 273 274 275 277 279 280 282 284 286 289 292 294 296 296 297 298 298 298 298 297 297 298 300 301 301 301 302 302 301 299 298 300 303 305 307 310 311 312 312 311 310 309 308 306 306 305 305 306 307 309 311 311 313 313 314 315
253 256 259 263 265 256 245 243 242 242 246 248 247 243 241 244 247 249 252 257 258 258 260 263 267 270 271 271 272 274 275 277 279 280 282 283 285 287 290 293 295 296 296 296 296 295 295 295 296 297 298 299 300 300 300 300 300 298 296 298 300 302 304 306 307 309 309 309 308 307 307 306 304 303 303 303 305 306 308 309 310 311 312 312 313
244 252 272 281 281 272 258 252 250 247 244 246 249 249 248 248 249 250 251 255 259 260 261 263 266 268 271 273 275 278 280 282 283 284 284 285 287 289 291 292 293 293 293 293 293 293 294 294 295 297 298 298 298 299 299 298 296 295 296 298 300 301 303 305 306 306 307 306 306 305 304 303 302 301 302 302 304 306 307 308 309 309 310 311 311
238 244 276 294 297 294 283 269 262 258 253 250 249 251 251 251 250 249 249 251 254 257 259 262 265 269 273 277 281 283 285 286 286 286 286 287 288 288 288 289 290 291 291 291 292 292 293 294 296 297 297 297 297 297 296 294 293 294 296 298 299 301 302 303 304 304 304 304 303 303 302 301 300 300 301 302 303 305 306 307 307 308 308 308 309
254 262 275 285 295 307 310 300 283 270 263 258 256 255 257 258 258 257 257 258 259 260 263 266 269 272 275 278 282 283 284 284 285 285 286 286 286 287 287 288 288 289 290 291 291 292 293 295 296 296 295 296 296 295 293 292 293 295 296 297 299 301 301 301 301 302 301 301 301 301 300 300 300 300 301 302 303 304 304 305 305 306 306 307 307
265 272 277 280 285 293 305 312 309 296 280 270 265 263 263 264 264 264 265 266 267 268 270 271 272 273 275 277 279 280 281 282 283 283 284 285 285 286 287 287 288 289 290 291 292 293 294 294 295 295 295 295 294 293 292 293 294 295 296 298 299 300 300 299 299 299 300 300 299 299 299 298 299 300 301 301 302 303 303 304 304 305 305 306 306
267 271 274 276 279 284 292 300 308 310 303 292 283 280 279 278 276 274 273 272 272 273 274 275 275 275 276 277 279 280 281 282 283 284 285 286 286 286 287 287 288 290 291 292 293 294 295 296 296 297 297 295 294 294 294 294 294 295 297 298 299 298 297 297 297 298 298 298 298 298 297 298 299 300 300 301 301 302 303 304 305 305 305 304 304
265 269 272 274 277 279 283 288 295 303 305 303 298 293 292 294 292 290 289 289 288 287 286 285 285 285 284 285 286 286 286 286 287 287 287 287 287 287 288 289 290 292 293 294 295 296 297 297 296 295 294 294 294 294 294 294 295 296 297 297 297 296 295 295 296 297 297 297 297 297 297 297 298 299 300 301 302 303 304 305 305 304 303 303 304
268 270 273 276 277 279 280 281 287 295 300 304 305 302 299 298 295 294 298 301 300 300 301 301 301 301 302 302 301 300 298 297 296 296 296 297 296 296 295 295 294 294 294 294 295 295 295 294 293 292 292 293 293 293 293 294 295 296 296 295 295 295 295 295 295 296 296 296 296 296 297 297 299 300 302 303 304 304 305 305 305 304 303 305 308
274 274 275 277 278 278 279 279 281 289 296 300 304 305 301 297 296 298 303 307 309 312 314 315 316 317 318 318 316 315 314 314 313 312 310 309 306 302 298 295 293 291 291 292 292 292 292 291 291 291 291 292 292 293 294 294 295 294 294 294 294 294 294 295 295 295 296 296 296 297 298 300 301 302 303 304 304 305 305 305 305 305 307 310 313
279 281 281 279 277 275 276 277 278 283 291 296 299 300 297 292 293 298 303 307 309 311 313 314 316 317 318 318 318 317 316 316 315 313 311 308 305 301 297 295 293 292 291 292 292 292 291 291 291 291 292 293 293 294 294 294 294 294 294 294 294 294 294 294 295 295 296 297 298 300 301 302 303 303 303 304 305 306 306 306 307 308 311 313 314
279 285 286 283 279 274 271 272 275 279 284 290 293 293 289 284 286 292 298 302 304 306 308 309 311 312 314 315 315 314 314 314 314 313 312 309 306 303 300 298 296 295 294 294 293 292 291 291 291 292 292 293 294 294 294 294 293 294 294 294 293 293 294 294 295 296 297 299 300 301 302 303 303 304 304 305 306 306 305 306 308 310 312 313 314
Height
10798 10797 10797 10797 10796 10796 10796 10796 10796 10797 10796 10796 10797 10797 10797 10797 10798 10798 10799 10799 10799 10799 10798 10798 10798 10798 10798 10798 10798 10798 10797 10797 10797 10796 10795 10794 10793 10792 10791 10790 10789 10788 10787 10785 10784 10782 10781 10778 10776 10774 10771 10769 10766 10764 10762 10760 10758 10755 10752 10750 10747 10745 10743 10742 10740 10739 10737 10736 10735 10734 10733 10731 10730 10728 10726 10724 10722 10720 10718 10715 10713 10712 10710 10709 10707
10795 10795 10795 10794 10794 10794 10794 10794 10794 10794 10794 10794 10794 10794 10795 10795 10796 10796 10797 10797 10797 10797 10797 10797 10797 10796 10796 10796 10796 10796 10796 10795 10795 10794 10793 10792 10791 10790 10789 10788 10787 10786 10785 10784 10782 10781 10779 10777 10774 10772 10770 10768 10765 10763 10761 10759 10757 10754 10751 10749 10746 10744 10743 10741 10739 10738 10737 10735 10734 10733 10732 10730 10729 10727 10725 10723 10721 10718 10716 10714 10712 10710 10708 10707 10705
10793 10792 10792 10792 10792 10792 10792 10792 10792 10792 10792 10792 10792 10792 10792 10793 10794 10794 10795 10795 10795 10795 10795 10795 10795 10794 10794 10794 10793 10793 10793 10793 10793 10792 10792 10791 10790 10789 10788 10786 10786 10785 10784 10782 10780 10779 10777 10775 10773 10771 10769 10767 10764 10763 10761 10759 10756 10754 10751 10748 10746 10744 10742 10740 10739 10737 10736 10735 10733 10732 10730 10729 10727 10725 10723 10721 10719 10716 10714 10712 10710 10708 10706 10705 10703
10790 10790 10789 10790 10790 10789 10789 10789 10789 10789 10789 10789 10789 10789 10790 10791 10791 10792 10792 10793 10793 10792 10792 10793 10792 10792 10792 10791 10791 10791 10791 10791 10791 10790 10790 10789 10788 10787 10786 10785 10784 10783 10782 10780 10779 10777 10775 10774 10772 10770 10768 10766 10763 10762 10760 10758 10756 10754 10751 10749 10746 10744 10742 10740 10738 10737 10735 10734 10732 10731 10729 10727 10725 10723 10721 10719 10716 10714 10712 10710 10708 10706 10704 10702 10701
10787 10787 10787 10787 10787 10787 10786 10786 10786 10786 10787 10787 10787 10787 10787 10788 10789 10790 10790 10790 10790 10790 10790 10790 10790 10789 10789 10789 10789 10789 10789 10788 10788 10788 10788 10787 10787 10786 10785 10783 10782 10781 10780 10778 10777 10776 10774 10773 10771 10769 10767 10765 10763 10761 10759 10758 10755 10753 10751 10749 10747 10744 10742 10740 10738 10736 10734 10733 10731 10729 10727 10725 10723 10721 10719 10716 10714 10712 10709 10707 10705 10703 10701 10699 10697
10784 10784 10783 10784 10784 10784 10783 10783 10783 10783 10784 10784 10784 10784 10785 10786 10786 10787 10787 10788 10788 10788 10788 10788 10787 10787 10787 10786 10786 10786 10787 10786 10786 10786 10786 10786 10785 10784 10783 10781 10780 10779 10778 10777 10775 10774 10773 10772 10770 10768 10766 10763 10762 10760 10758 10756 10754 10752 10750 10748 10746 10743 10741 10739 10737 10735 10733 10731 10729 10727 10726 10724 10721 10719 10716 10714 10711 10709 10706 10704 10702 10699 10697 10695 10693
10781 10780 10780 10780 10780 10780 10780 10780 10780 10780 10780 10781 10781 10781 10782 10783 10784 10785 10785 10785 10785 10786 10786 10786 10785 10785 10784 10784 10784 10784 10784 10784 10784 10784 10784 10783 10783 10782 10781 10780 10779 10778 10776 10775 10774 10773 10771 10770 10769 10767 10765 10763 10761 10759 10757 10755 10753 10751 10749 10747 10744 10742 10739 10737 10735 10733 10731 10729 10727 10725 10723 10721 10719 10716 10714 10711 10709 10706 10703 10701 10698 10696 10693 10690 10688
10776 10776 10777 10777 10777 10777 10778 10778 10778 10777 10777 10778 10779 10779 10779 10780 10781 10782 10783 10783 10783 10784 10784 10784 10783 10783 10782 10782 10781 10781 10782 10782 10782 10782 10782 10781 10781 10780 10779 10778 10777 10776 10775 10773 10772 10771 10770 10769 10767 10765 10763 10761 10759 10757 10756 10754 10752 10750 10747 10745 10743 10740 10738 10735 10733 10731 10729 10727 10725 10723 10720 10718 10715 10713 10711 10708 10706 10703 10700 10698 10695 10692 10689 10686 10684
10772 10772 10773 10774 10774 10774 10775 10775 10775 10774 10774 10775 10776 10777 10777 10778 10779 10779 10780 10781 10781 10782 10782 10781 10781 10781 10780 10780 10779 10779 10779 10780 10780 10780 10780 10779 10778 10777 10776 10776 10775 10774 10773 10771 10770 10769 10768 10767 10765 10763 10762 10760 10758 10756 10754 10752 10750 10748 10746 10744 10741 10739 10736 10733 10731 10729 10727 10724 10722 10720 10717 10715 10712 10710 10708 10705 10703 10700 10697 10694 10691 10687 10684 10681 10679
10768 10768 10769 10770 10771 10771 10772 10772 10772 10771 10772 10773 10774 10774 10774 10775 10776 10777 10778 10778 10779 10779 10780 10779 10779 10779 10779 10778 10777 10777 10777 10777 10778 10778 10778 10777 10776 10775 10774 10774 10773 10772 10771 10769 10769 10767 10766 10765 10763 10761 10760 10758 10757 10755 10753 10751 10749 10746 10744 10741 10739 10737 10734 10731 10729 10726 10724 10722 10719 10717 10714 10712 10710 10707 10705 10702 10700 10696 10693 10689 10686 10683 10680 10677 10674
10764 10765 10766 10766 10767 10768 10768 10768 10768 10768 10769 10770 10771 10772 10772 10772 10773 10774 10775 10776 10777 10777 10777 10777 10777 10777 10777 10776 10776 10775 10775 10775 10776 10776 10775 10775 10774 10773 10772 10772 10771 10770 10768 10767 10767 10765 10764 10763 10761 10759 10758 10757 10755 10753 10751 10749 10746 10744 10742 10739 10736 10734 10732 10729 10726 10724 10721 10719 10716 10713 10711 10709 10707 10704 10702 10699 10696 10692 10689 10685 10682 10679 10676 10673 10670
10760 10761 10762 10762 10763 10763 10764 10764 10764 10764 10765 10767 10768 10769 10769 10770 10770 10771 10772 10773 10774 10774 10775 10775 10774 10775 10775 10774 10774 10774 10773 10773 10773 10774 10773 10772 10771 10770 10770 10770 10769 10768 10766 10765 10764 10763 10762 10761 10759 10757 10756 10754 10753 10751 10748 10746 10744 10742 10739 10737 10734 10732 10729 10727 10724 10721 10718 10715 10713 10710 10708 10706 10703 10701 10698 10695 10691 10688 10685 10681 10678 10675 10672 10669 10666
10755 10756 10756 10757 10758 10758 10759 10759 10760 10761 10762 10763 10764 10765 10767 10767 10768 10769 10770 10770 10771 10771 10772 10772 10772 10772 10772 10772 10772 10772 10772 10771 10771 10771 10771 10770 10768 10768 10768 10767 10766 10765 10764 10762 10762 10761 10760 10758 10757 10755 10753 10752 10750 10748 10746 10744 10742 10739 10737 10734 10732 10729 10726 10724 10721 10718 10715 10712 10709 10707 10705 10702 10700 10697 10694 10691 10687 10684 10681 10677 10674 10671 10668 10665 10662
10749 10750 10750 10751 10752 10753 10754 10755 10756 10757 10759 10760 10761 10762 10764 10765 10765 10766 10767 10768 10768 10768 10769 10769 10770 10770 10770 10770 10770 10770 10770 10769 10768 10768 10768 10767 10766 10766 10766 10765 10764 10762 10761 10760 10759 10758 10757 10755 10754 10752 10751 10749 10747 10745 10743 10741 10739 10737 10734 10732 10729 10726 10724 10721 10718 10716 10713 10709 10706 10704 10701 10699 10696 10693 10690 10687 10684 10680 10677 10673 10670 10667 10663 10660 10657
10743 10743 10744 10746 10747 10748 10749 10751 10752 10754 10755 10757 10758 10760 10761 10762 10763 10764 10765 10765 10766 10766 10766 10767 10767 10767 10767 10768 10768 10768 10768 10767 10766 10765 10765 10764 10763 10763 10763 10763 10761 10759 10759 10758 10756 10755 10754 10752 10751 10749 10748 10746 10745 10743 10741 10739 10737 10734 10732 10729 10726 10724 10721 10718 10716 10713 10710 10707 10704 10701 10698 10695 10692 10690 10687 10683 10680 10676 10673 10669 10666 10662 10659 10656 10653
10737 10738 10740 10741 10743 10744 10746 10747 10748 10750 10752 10754 10755 10757 10759 10760 10761 10761 10762 10762 10763 10763 10763 10764 10764 10764 10765 10765 10765 10765 10765 10765 10764 10763 10762 10762 10761 10761 10761 10760 10759 10757 10756 10755 10754 10753 10751 10750 10748 10747 10745 10744 10742 10740 10738 10736 10734 10731 10729 10726 10724 10721 10718 10716 10713 10710 10708 10704 10701 10698 10695 10692 10689 10686 10683 10680 10676 10673 10669 10666 10662 10659 10656 10652 10649
10732 10734 10736 10737 10738 10740 10742 10744 10745 10747 10749 10751 10753 10754 10756 10758 10758 10759 10759 10760 10760 10760 10761 10761 10762 10761 10762 10762 10762 10763 10763 10762 10762 10761 10760 10759 10759 10758 10758 10757 10756 10754 10754 10753 10752 10750 10749 10747 10745 10744 10742 10741 10739 10737 10735 10733 10731 10728 10726 10724 10721 10718 10715 10713 10710 10708 10705 10702 10698 10695 10692 10689 10686 10683 10679 10676 10673 10670 10666 10663 10660 10656 10653 10649 10645
10729 10730 10732 10733 10735 10736 10738 10740 10741 10743 10745 10747 10749 10751 10753 10755 10756 10757 10757 10758 10758 10758 10758 10758 10759 10758 10758 10759 10759 10759 10760 10760 10759 10758 10757 10757 10757 10756 10755 10754 10752 10751 10751 10750 10749 10748 10746 10744 10742 10741 10739 10738 10736 10734 10732 10730 10727 10725 10723 10720 10718 10715 10713 10710 10708 10705 10702 10699 10696 10692 10689 10686 10683 10679 10676 10673 10670 10667 10664 10660 10657 10654 10650 10646 10643
10725 10726 10728 10729 10731 10732 10734 10736 10737 10739 10741 10743 10746 10748 10750 10752 10753 10754 10755 10755 10755 10755 10755 10755 10755 10755 10755 10756 10756 10756 10756 10756 10756 10755 10755 10754 10754 10754 10752 10751 10749 10748 10747 10747 10746 10745 10743 10741 10739 10738 10736 10735 10733 10731 10729 10727 10724 10722 10720 10717 10715 10712 10710 10707 10705 10702 10700 10697 10693 10690 10686 10683 10679 10676 10673 10670 10667 10664 10661 10658 10654 10651 10647 10644 10640
10722 10722 10724 10725 10727 10729 10730 10732 10734 10735 10737 10739 10741 10744 10746 10748 10750 10751 10752 10754 10754 10752 10751 10751 10751 10751 10752 10752 10753 10753 10753 10753 10753 10753 10752 10751 10751 10751 10749 10748 10747 10745 10743 10743 10742 10741 10740 10737 10735 10734 10733 10732 10730 10728 10726 10723 10721 10719 10716 10714 10712 10709 10707 10704 10702 10700 10697 10694 10690 10687 10683 10680 10676 10673 10670 10667 10664 10661 10658 10655 10651 10648 10645 10641 10637
10718 10719 10720 10721 10723 10725 10726 10728 10729 10731 10733 10735 10737 10739 10742 10744 10746 10748 10751 10752 10752 10750 10747 10745 10747 10747 10748 10749 10749 10749 10749 10749 10749 10749 10749 10748 10749 10748 10747 10745 10744 10742 10741 10739 10738 10738 10736 10734 10732 10731 10730 10729 10727 10725 10723 10720 10718 10716 10713 10711 10708 10706 10703 10701 10699 10696 10694 10691 10687 10684 10680 10677 10673 10670 10667 10664 10661 10658 10655 10652 10648 10645 10642 10638 10634
10715 10716 10716 10717 10719 10721 10722 10724 10725 10727 10728 10730 10732 10734 10736 10739 10741 10743 10746 10747 10747 10746 10742 10740 10742 10743 10744 10745 10746 10746 10746 10745 10745 10745 10745 10745 10746 10746 10744 10743 10742 10740 10738 10737 10735 10734 10733 10731 10730 10728 10727 10726 10724 10721 10719 10717 10715 10712 10710 10708 10705 10703 10700 10698 10696 10693 10690 10687 10684 10681 10677 10673 10670 10667 10664 10661 10658 10655 10652 10648 10645 10642 10639 10635 10632
10712 10713 10713 10714 10715 10717 10718 10720 10721 10722 10723 10725 10726 10728 10731 10733 10735 10738 10740 10739 10740 10741 10738 10736 10738 10739 10739 10741 10742 10742 10743 10742 10742 10741 10741 10741 10742 10742 10741 10740 10739 10738 10736 10735 10732 10731 10730 10729 10727 10726 10724 10723 10721 10718 10716 10714 10712 10709 10707 10704 10702 10699 10697 10694 10692 10689 10686 10684 10680 10677 10673 10670 10667 10664 10661 10658 10655 10652 10648 10645 10642 10639 10636 10632 10629
10710 10710 10711 10711 10712 10713 10714 10716 10717 10717 10718 10719 10721 10723 10725 10728 10730 10732 10734 10735 10735 10736 10734 10733 10734 10735 10735 10736 10737 10738 10739 10739 10738 10737 10737 10737 10738 10738 10738 10737 10736 10735 10733 10732 10730 10728 10726 10725 10724 10723 10721 10720 10717 10714 10712 10710 10708 10706 10703 10701 10698 10696 10693 10690 10688 10685 10683 10680 10677 10673 10670 10666 10663 10660 10657 10654 10651 10648 10645 10642 10639 10636 10632 10629 10625
10707 10708 10709 10709 10710 10710 10710 10711 10712 10713 10713 10715 10716 10718 10720 10723 10725 10726 10728 10730 10731 10732 10731 10730 10730 10731 10731 10732 10733 10734 10735 10735 10734 10733 10733 10733 10734 10734 10734 10733 10732 10731 10730 10729 10727 10725 10723 10721 10720 10719 10717 10716 10713 10711 10708 10706 10704 10702 10699 10696 10694 10691 10689 10686 10684 10681 10679 10676 10673 10669 10666 10663 10659 10656 10653 10650 10647 10645 10642 10639 10635 10632 10629 10625 10622
10705 10706 10706 10707 10707 10707 10707 10707 10707 10709 10710 10711 10712 10714 10716 10718 10719 10720 10722 10724 10725 10726 10727 10727 10727 10727 10727 10727 10729 10731 10731 10731 10731 10730 10729 10729 10730 10730 10729 10728 10728 10727 10726 10725 10723 10721 10719 10717 10716 10715 10714 10712 10710 10707 10704 10702 10700 10698 10695 10692 10690 10687 10684 10682 10679 10677 10675 10672 10669 10666 10662 10659 10655 10652 10649 10646 10643 10641 10638 10635 10632 10628 10625 10622 10618
10703 10703 10703 10704 10704 10703 10703 10703 10704 10706 10709 10708 10708 10711 10714 10713 10713 10715 10716 10718 10720 10721 10722 10723 10723 10723 10723 10723 10724 10726 10727 10728 10727 10726 10725 10725 10725 10725 10725 10724 10722 10722 10721 10720 10718 10717 10715 10713 10712 10711 10710 10708 10706 10704 10701 10698 10695 10693 10691 10688 10685 10683 10680 10677 10675 10673 10671 10668 10665 10662 10658 10655 10651 10648 10645 10642 10639 10637 10634 10631 10628 10624 10621 10617 10614
10701 10700 10700 10700 10700 10700 10700 10701 10703 10705 10706 10706 10707 10710 10711 10709 10708 10710 10711 10712 10714 10716 10718 10718 10719 10719 10719 10719 10720 10721 10723 10723 10723 10723 10721 10721 10721 10721 10720 10719 10718 10717 10716 10715 10713 10712 10710 10708 10707 10706 10705 10704 10702 10700 10697 10694 10691 10689 10686 10683 10681 10679 10676 10674 10671 10669 10666 10664 10661 10658 10654 10650 10647 10644 10641 10638 10635 10633 10630 10627 10624 10620 10617 10613 10609
10698 10697 10697 10696 10696 10697 10698 10701 10704 10704 10703 10706 10708 10707 10706 10706 10706 10706 10706 10707 10709 10711 10712 10714 10714 10714 10715 10715 10716 10717 10718 10719 10719 10719 10717 10716 10716 10717 10716 10715 10714 10713 10711 10710 10709 10707 10705 10703 10702 10701 10700 10699 10697 10696 10693 10690 10687 10684 10682 10679 10676 10675 10672 10669 10667 10665 10662 10659 10656 10653 10649 10646 10642 10639 10637 10634 10631 10629 10626 10623 10619 10615 10612 10608 10604
10695 10694 10692 10692 10692 10694 10696 10701 10705 10701 10699 10706 10709 10705 10700 10700 10701 10702 10703 10703 10705 10706 10707 10708 10709 10710 10711 10712 10713 10713 10714 10714 10715 10714 10713 10712 10712 10712 10712 10711 10710 10709 10707 10706 10704 10702 10700 10698 10696 10695 10695 10694 10692 10690 10689 10686 10683 10680 10677 10674 10672 10670 10667 10664 10662 10660 10657 10655 10652 10648 10644 10641 10638 10635 10632 10629 10626 10624 10621 10618 10614 10610 10607 10603 10599
10692 10688 10686 10687 10690 10693 10695 10699 10700 10694 10691 10698 10703 10699 10695 10694 10695 10697 10699 10700 10701 10701 10702 10704 10705 10706 10706 10707 10708 10709 10709 10710 10710 10710 10709 10708 10707 10706 10706 10706 10705 10704 10703 10701 10699 10698 10696 10694 10692 10690 10689 10689 10687 10685 10683 10681 10678 10675 10672 10670 10667 10665 10663 10660 10658 10655 10652 10650 10647 10643 10639 10635 10632 10630 10627 10624 10621 10618 10616 10612 10609 10606 10602 10598 10595
10688 10683 10682 10686 10689 10690 10691 10692 10691 10687 10686 10690 10694 10693 10692 10691 10693 10694 10695 10697 10697 10697 10697 10699 10700 10701 10702 10703 10704 10704 10705 10705 10705 10705 10705 10704 10703 10702 10701 10700 10699 10699 10698 10696 10695 10693 10691 10690 10688 10686 10684 10683 10682 10680 10678 10675 10672 10670 10667 10664 10662 10660 10658 10657 10654 10650 10647 10644 10641 10638 10633 10630 10627 10624 10621 10619 10616 10613 10610 10608 10604 10601 10597 10593 10589
10683 10680 10682 10684 10685 10686 10686 10686 10687 10686 10684 10685 10689 10690 10690 10690 10692 10693 10694 10694 10693 10692 10693 10695 10697 10698 10698 10699 10699 10700 10700 10701 10700 10700 10701 10700 10699 10698 10696 10695 10694 10693 10692 10691 10690 10689 10687 10685 10683 10681 10679 10678 10676 10675 10673 10670 10667 10665 10662 10659 10657 10654 10653 10652 10650 10646 10642 10639 10636 10632 10628 10624 10622 10619 10616 10614 10611 10608 10606 10603 10600 10596 10592 10588 10584
10678 10678 10680 10681 10682 10683 10682 10682 10683 10683 10681 10681 10684 10686 10687 10689 10691 10692 10692 10691 10689 10689 10691 10693 10694 10695 10695 10695 10695 10695 10695 10695 10696 10696 10696 10696 10695 10693 10692 10690 10689 10688 10687 10686 10685 10683 10682 10680 10678 10676 10675 10672 10670 10669 10667 10665 10663 10660 10658 10655 10652 10649 10647 10646 10644 10641 10638 10634 10630 10627 10623 10620 10617 10614 10611 10608 10606 10603 10600 10597 10594 10590 10586 10582 10578
10674 10676 10678 10678 10679 10679 10678 10679 10679 10679 10680 10680 10681 10683 10685 10687 10688 10688 10689 10688 10687 10688 10689 10689 10690 10691 10691 10691 10690 10690 10690 10690 10691 10692 10692 10691 10690 10689 10688 10686 10685 10684 10682 10681 10680 10678 10676 10675 10673 10671 10669 10667 10665 10662 10660 10659 10657 10655 10653 10650 10647 10645 10642 10640 10638 10635 10632 10629 10625 10621 10618 10615 10611 10608 10606 10603 10601 10598 10595 10591 10588 10585 10581 10577 10573
10671 10675 10676 10676 10676 10676 10676 10677 10677 10678 10679 10679 10680 10681 10683 10684 10685 10685 10685 10685 10685 10686 10685 10686 10686 10687 10687 10687 10686 10686 10686 10686 10687 10687 10687 10686 10686 10685 10683 10682 10681 10679 10678 10676 10674 10673 10671 10669 10668 10666 10664 10662 10659 10656 10654 10652 10650 10648 10646 10644 10642 10639 10637 10634 10632 10629 10626 10622 10619 10616 10612 10609 10606 10603 10600 10598 10595 10592 10589 10585 10582 10579 10575 10571 10567
10672 10673 10674 10674 10674 10674 10674 10675 10677 10679 10678 10678 10678 10679 10681 10682 10682 10681 10680 10681 10683 10682 10682 10683 10683 10683 10683 10683 10682 10682 10682 10682 10683 10683 10682 10682 10681 10680 10679 10677 10676 10674 10673 10671 10669 10667 10666 10664 10662 10660 10659 10656 10654 10651 10649 10646 10644 10642 10640 10638 10636 10633 10631 10629 10626 10623 10620 10616 10613 10610 10607 10604 10601 10598 10595 10592 10589 10586 10582 10579 10576 10573 10569 10565 10561
10673 10672 10672 10673 10673 10672 10673 10674 10676 10678 10677 10676 10677 10678 10679 10680 10679 10678 10678 10678 10679 10678 10679 10680 10680 10679 10679 10679 10678 10678 10678 10678 10678 10678 10678 10677 10676 10675 10674 10672 10671 10669 10667 10666 10664 10662 10660 10658 10656 10655 10653 10651 10648 10645 10643 10640 10638 10636 10634 10632 10629 10627 10624 10622 10619 10617 10613 10610 10607 10604 10601 10598 10595 10592 10589 10586 10583 10579 10576 10573 10570 10566 10563 10559 10555
10672 10671 10671 10672 10671 10671 10672 10672 10673 10674 10673 10674 10674 10675 10676 10676 10676 10676 10676 10676 10676 10675 10676 10676 10676 10676 10676 10676 10675 10674 10674 10674 10674 10674 10673 10672 10671 10669 10668 10667 10665 10664 10662 10660 10658 10656 10655 10653 10651 10649 10647 10645 10643 10640 10637 10635 10633 10631 10629 10626 10624 10621 10618 10615 10612 10610 10606 10603 10600 10598 10595 10591 10589 10586 10583 10579 10576 10573 10570 10567 10563 10560 10557 10553 10549
10670 10670 10669 10669 10669 10669 10670 10670 10670 10671 10671 10672 10671 10672 10672 10672 10672 10673 10674 10674 10673 10674 10674 10673 10672 10672 10671 10671 10671 10670 10670 10669 10669 10669 10668 10667 10665 10664 10662 10661 10659 10658 10656 10654 10653 10651 10649 10647 10646 10644 10642 10640 10637 10635 10632 10630 10627 10625 10623 10621 10619 10616 10612 10609 10606 10603 10600 10597 10594 10591 10589 10585 10582 10579 10576 10573 10570 10567 10564 10561 10557 10554 10550 10546 10542
10668 10668 10667 10667 10667 10667 10667 10667 10667 10667 10668 10668 10668 10669 10669 10668 10669 10670 10672 10672 10671 10671 10671 10669 10668 10667 10666 10666 10666 10665 10665 10665 10664 10664 10662 10661 10660 10658 10657 10655 10653 10651 10650 10648 10647 10645 10643 10642 10640 10638 10636 10634 10632 10629 10626 10624 10622 10620 10618 10616 10613 10610 10607 10604 10601 10598 10594 10591 10587 10585 10583 10579 10576 10573 10570 10567 10564 10561 10558 10555 10551 10548 10544 10540 10536
10666 10666 10666 10666 10665 10665 10664 10664 10663 10664 10664 10665 10665 10666 10666 10665 10666 10667 10668 10668 10667 10667 10667 10666 10665 10663 10661 10660 10660 10660 10660 10659 10659 10658 10656 10655 10654 10652 10651 10649 10647 10645 10644 10642 10641 10639 10637 10636 10634 10632 10630 10627 10625 10623 10620 10618 10616 10614 10612 10609 10606 10604 10601 10598 10595 10591 10588 10585 10581 10578 10576 10573 10570 10567 10564 10561 10558 10554 10552 10549 10545 10541 10537 10533 10530
10664 10664 10665 10664 10664 10663 10662 10662 10661 10660 10661 10661 10662 10662 10662 10662 10662 10662 10662 10662 10662 10661 10661 10660 10659 10657 10656 10654 10654 10655 10654 10653 10652 10651 10649 10648 10647 10646 10644 10643 10641 10639 10638 10636 10634 10632 10631 10629 10627 10625 10623 10620 10618 10615 10613 10611 10609 10607 10605 10602 10600 10597 10594 10591 10588 10585 10582 10578 10575 10572 10569 10566 10563 10560 10557 10554 10551 10548 10545 10542 10538 10534 10530 10526 10523
10661 10662 10662 10662 10662 10661 10661 10660 10659 10658 10658 10658 10658 10658 10658 10659 10659 10658 10657 10656 10656 10656 10655 10654 10653 10652 10651 10650 10649 10649 10648 10647 10646 10644 10643 10642 10640 10639 10638 10636 10635 10633 10631 10629 10627 10626 10624 10622 10620 10618 10616 10613 10611 10608 10606 10604 10602 10600 10598 10595 10593 10590 10587 10583 10581 10578 10575 10571 10568 10565 10562 10559 10556 10554 10551 10548 10545 10541 10538 10535 10531 10527 10523 10519 10515
10659 10659 10659 10660 10659 10659 10659 10658 10657 10656 10655 10655 10655 10655 10655 10655 10655 10655 10653 10653 10652 10651 10650 10650 10649 10648 10647 10646 10645 10644 10643 10641 10640 10639 10638 10637 10635 10633 10631 10630 10628 10626 10624 10622 10620 10619 10617 10616 10614 10612 10609 10607 10604 10602 10600 10598 10595 10593 10590 10588 10585 10582 10579 10576 10573 10570 10568 10564 10561 10558 10555 10552 10550 10547 10544 10541 10538 10534 10531 10528 10524 10520 10516 10512 10507
10657 10656 10656 10656 10656 10656 10656 10655 10654 10654 10653 10652 10652 10652 10652 10652 10651 10651 10650 10650 10649 10648 10647 10646 10646 10645 10644 10642 10641 10640 10638 10637 10635 10634 10633 10631 10629 10627 10625 10623 10621 10619 10617 10615 10613 10612 10610 10608 10607 10604 10602 10600 10598 10596 10594 10591 10588 10585 10583 10580 10577 10574 10572 10568 10566 10563 10560 10557 10554 10551 10548 10545 10542 10540 10537 10534 10530 10527 10524 10520 10517 10512 10508 10504 10499
10655 10654 10653 10653 10653 10652 10652 10652 10651 10651 10650 10650 10650 10650 10650 10649 10648 10648 10647 10646 10645 10644 10643 10642 10642 10641 10640 10638 10637 10635 10633 10632 10630 10629 10627 10625 10623 10620 10618 10616 10614 10612 10610 10608 10606 10605 10603 10601 10599 10597 10595 10593 10591 10589 10587 10584 10581 10578 10575 10572 10569 10566 10564 10561 10558 10556 10553 10550 10547 10544 10541 10538 10535 10532 10529 10526 10523 10520 10516 10512 10508 10504 10499 10495 10490
10651 10651 10651 10650 10650 10649 10648 10648 10647 10647 10647 10647 10646 10646 10646 10645 10645 10644 10643 10642 10641 10640 10639 10638 10637 10636 10635 10633 10631 10630 10628 10626 10625 10623 10621 10618 10616 10613 10611 10609 10607 10605 10603 10601 10600 10598 10596 10595 10593 10591 10589 10586 10584 10582 10579 10577 10574 10571 10568 10565 10562 10559 10556 10554 10551 10548 10545 10542 10539 10536 10533 10531 10528 10525 10522 10518 10515 10511 10508 10504 10499 10495 10490 10485 10480
10648 10648 10648 10647 10646 10645 10644 10644 10643 10643 10643 10643 10642 10642 10641 10641 10640 10640 10639 10638 10637 10636 10635 10633 10632 10631 10629 10627 10625 10624 10622 10619 10617 10615 10613 10610 10608 10606 10604 10602 10600 10598 10597 10595 10594 10592 10590 10588 10586 10583 10581 10579 10577 10574 10572 10569 10566 10563 10561 10558 10555 10552 10549 10546 10543 10540 10538 10534 10531 10528 10526 10523 10520 10518 10514 10510 10505 10502 10498 10494 10490 10485 10479 10474 10470
10644 10644 10644 10643 10642 10642 10641 10640 10640 10639 10639 10638 10638 10638 10637 10637 10636 10636 10635 10634 10633 10632 10631 10629 10628 10627 10625 10623 10621 10618 10616 10614 10612 10610 10608 10605 10603 10601 10599 10597 10595 10593 10591 10589 10587 10585 10583 10581 10579 10576 10574 10572 10569 10567 10565 10562 10559 10557 10554 10551 10548 10545 10542 10539 10535 10533 10530 10527 10523 10520 10518 10515 10511 10507 10504 10501 10497 10493 10489 10484 10479 10474 10469 10464 10459
10640 10640 10640 10639 10638 10638 10637 10636 10636 10635 10634 10634 10634 10633 10633 10633 10632 10632 10631 10630 10629 10628 10626 10625 10624 10623 10621 10619 10616 10614 10611 10609 10607 10605 10603 10601 10599 10596 10594 10591 10589 10587 10585 10583 10581 10579 10576 10574 10572 10570 10567 10565 10562 10559 10557 10555 10552 10549 10547 10544 10541 10538 10534 10531 10527 10524 10521 10518 10515 10511 10508 10505 10502 10497 10493 10489 10486 10482 10479 10476 10471 10465 10459 10454 10449